EW0415 Weather Reports


time (UTC)temp
C
wind
direction
speed
KPH
gust
KPH
rain 1hr
cm
rain 24hr
cm
rain mn
cm
humidity
%
barometer
mb
20260505093035 13 0 0.0 0.0 0.00 0.18 0.08 70 1025.8
20260505092509 13 0 0.0 0.0 0.00 0.18 0.08 70 1025.7
20260505092012 13 0 0.0 0.0 0.00 0.18 0.08 70 1025.7
20260505091528 13 0 0.0 0.0 0.00 0.18 0.08 69 1025.6
20260505091014 13 0 0.0 0.0 0.00 0.18 0.08 69 1025.6
20260505090508 13 0 0.0 0.0 0.00 0.18 0.08 69 1025.6
20260505090030 13 0 0.0 0.0 0.00 0.18 0.08 69 1025.5
20260505085512 13 0 0.0 0.0 0.00 0.18 0.08 68 1025.4
20260505085012 13 0 0.0 0.0 0.00 0.18 0.08 68 1025.3
20260505084529 13 0 0.0 0.0 0.00 0.18 0.08 67 1025.3
20260505084008 13 0 0.0 0.0 0.00 0.18 0.08 67 1025.2
20260505083513 14 0 0.0 0.0 0.00 0.18 0.08 67 1025.2
20260505083033 14 0 0.0 0.0 0.00 0.18 0.08 66 1025.1
20260505082510 14 0 0.0 0.0 0.00 0.18 0.08 65 1025.1
20260505082009 14 0 0.0 0.0 0.00 0.18 0.08 65 1025.1
20260505081530 15 0 0.0 0.0 0.00 0.18 0.08 65 1025.1
20260505081012 15 0 0.0 0.0 0.00 0.18 0.08 64 1025.0
20260505080511 15 0 0.0 0.0 0.00 0.18 0.08 64 1025.0
20260505080028 15 0 0.0 0.0 0.00 0.18 0.08 64 1024.9
20260505075511 15 0 0.0 0.0 0.00 0.18 0.08 64 1024.9
20260505075011 15 0 0.0 0.0 0.00 0.18 0.08 64 1024.9
20260505074530 16 0 0.0 1.6 0.00 0.18 0.08 64 1024.9
20260505074012 16 0 0.0 3.2 0.00 0.18 0.08 64 1024.9
20260505073513 16 0 0.0 3.2 0.00 0.18 0.08 64 1024.9
20260505073031 16 0 0.0 4.8 0.00 0.18 0.08 64 1024.9
20260505072514 16 0 0.0 6.4 0.00 0.18 0.08 64 1024.9
20260505072011 16 246 0.0 8.0 0.00 0.18 0.08 63 1024.8
20260505071526 16 0 1.6 8.0 0.00 0.18 0.08 63 1024.8
20260505071008 16 245 1.6 8.0 0.00 0.18 0.08 63 1024.8
20260505070514 16 0 0.0 6.4 0.00 0.18 0.08 63 1024.8
20260505070037 16 0 1.6 8.0 0.00 0.18 0.08 64 1024.8
20260505065509 16 0 0.0 8.0 0.00 0.18 0.08 64 1024.8
20260505065008 16 245 1.6 11.3 0.00 0.18 0.08 64 1024.7
20260505064530 16 247 0.0 11.3 0.00 0.18 0.08 64 1024.8
20260505064008 16 244 1.6 11.3 0.00 0.18 0.08 64 1024.8
20260505063508 17 241 1.6 8.0 0.00 0.18 0.08 64 1024.8
20260505063030 17 242 1.6 8.0 0.00 0.18 0.08 63 1024.7
20260505062519 17 246 1.6 11.3 0.00 0.18 0.08 63 1024.7
20260505062013 17 0 1.6 11.3 0.00 0.18 0.08 62 1024.8
20260505061538 17 211 1.6 8.0 0.00 0.18 0.08 62 1024.7
20260505061008 17 202 1.6 8.0 0.00 0.18 0.08 62 1024.6
20260505060512 17 186 1.6 8.0 0.00 0.18 0.08 63 1024.6
20260505060027 18 149 1.6 12.9 0.00 0.18 0.08 63 1024.5
20260505055517 18 245 1.6 12.9 0.00 0.18 0.08 62 1024.4
20260505055016 17 251 3.2 12.9 0.00 0.18 0.08 61 1024.5
20260505054527 17 267 1.6 12.9 0.00 0.18 0.08 60 1024.5
20260505054014 17 267 3.2 12.9 0.00 0.18 0.08 60 1024.3
20260505053511 17 263 1.6 9.7 0.00 0.18 0.08 59 1024.3
20260505053039 17 263 3.2 11.3 0.00 0.18 0.08 59 1024.3
20260505052510 17 265 3.2 11.3 0.00 0.18 0.08 59 1024.3
20260505052012 17 260 3.2 9.7 0.00 0.18 0.08 59 1024.3
20260505051552 17 269 3.2 9.7 0.00 0.18 0.08 60 1024.3
20260505051011 17 263 1.6 4.8 0.00 0.18 0.08 61 1024.1
20260505050516 17 263 0.0 4.8 0.00 0.18 0.08 62 1024.1
20260505041532 17 263 1.6 9.7 0.00 0.18 0.08 64 1024.3
20260505041009 17 263 1.6 9.7 0.00 0.18 0.08 64 1024.4
20260505040509 17 268 1.6 9.7 0.00 0.18 0.08 64 1024.4
20260505040030 17 272 3.2 9.7 0.00 0.18 0.08 64 1024.4
20260505035508 17 282 3.2 6.4 0.00 0.18 0.08 65 1024.5
20260505035007 17 286 1.6 9.7 0.00 0.18 0.08 65 1024.6
20260505034530 17 287 3.2 9.7 0.00 0.18 0.08 65 1024.7
20260505034010 17 290 3.2 8.0 0.00 0.18 0.08 65 1024.8
20260505033511 17 293 3.2 8.0 0.00 0.18 0.08 65 1024.8
20260505033029 17 290 3.2 6.4 0.00 0.18 0.08 66 1024.8
20260505032510 17 290 3.2 11.3 0.00 0.18 0.08 66 1024.8
20260505032011 17 289 1.6 11.3 0.00 0.18 0.08 65 1024.9
20260505031526 17 290 3.2 12.9 0.00 0.18 0.08 66 1024.9
20260505031011 17 288 3.2 12.9 0.00 0.18 0.08 66 1025.0
20260505030512 17 360 3.2 8.0 0.00 0.18 0.08 66 1025.1
20260505030031 17 360 4.8 9.7 0.00 0.18 0.08 67 1025.0
20260505025514 17 360 3.2 9.7 0.00 0.18 0.08 68 1025.3
20260505025008 17 288 3.2 12.9 0.00 0.18 0.08 68 1025.2
20260505024528 16 290 3.2 12.9 0.00 0.18 0.08 68 1025.4
20260505024010 16 290 4.8 11.3 0.00 0.18 0.08 68 1025.3
20260505023508 16 0 3.2 11.3 0.00 0.18 0.08 68 1025.3
20260505023028 16 295 3.2 12.9 0.00 0.18 0.08 70 1025.3
20260505022509 16 0 3.2 12.9 0.00 0.18 0.08 70 1025.4
20260505022010 16 0 1.6 11.3 0.00 0.18 0.08 72 1025.5
20260505021529 16 280 4.8 11.3 0.00 0.18 0.08 73 1025.5
20260505021009 16 271 1.6 8.0 0.00 0.18 0.08 75 1025.5
20260505020508 16 360 0.0 8.0 0.00 0.18 0.08 76 1025.5
20260505020027 16 360 0.0 6.4 0.00 0.18 0.08 77 1025.5
20260505015513 16 0 1.6 6.4 0.00 0.18 0.08 78 1025.6
20260505015012 15 0 1.6 8.0 0.00 0.18 0.08 80 1025.6
20260505014525 15 0 0.0 8.0 0.00 0.18 0.08 81 1025.6
20260505014017 15 360 0.0 4.8 0.00 0.18 0.08 82 1025.6
20260505013509 15 360 1.6 4.8 0.00 0.18 0.08 84 1025.6
20260505013029 15 360 0.0 4.8 0.00 0.18 0.08 84 1025.6
20260505012508 15 286 1.6 6.4 0.00 0.18 0.08 85 1025.7
20260505012012 15 0 0.0 6.4 0.00 0.18 0.08 86 1025.6
20260505011527 14 360 1.6 8.0 0.00 0.18 0.08 87 1025.5
20260505011009 14 0 0.0 9.7 0.00 0.18 0.08 88 1025.5
20260505010512 14 360 3.2 9.7 0.00 0.18 0.08 88 1025.3
20260505010030 14 0 0.0 8.0 0.00 0.18 0.08 88 1025.3
20260505005509 15 279 0.0 9.7 0.00 0.18 0.08 89 1025.3
20260505005008 15 279 0.0 9.7 0.00 0.18 0.08 89 1025.2
20260505004530 15 274 0.0 4.8 0.00 0.18 0.08 90 1025.2
20260505004008 15 0 0.0 0.0 0.00 0.18 0.08 90 1025.2
20260505003511 14 0 0.0 0.0 0.00 0.18 0.08 90 1025.1
20260505003029 14 0 0.0 0.0 0.00 0.18 0.08 90 1025.0
20260505002511 14 0 0.0 0.0 0.00 0.20 0.08 90 1025.1
20260505002011 14 0 0.0 0.0 0.00 0.20 0.08 90 1025.0
20260505001529 14 0 0.0 0.0 0.00 0.20 0.08 90 1025.0
20260505001008 14 0 0.0 0.0 0.00 0.20 0.08 90 1024.9
20260505000507 14 0 0.0 0.0 0.00 0.20 0.08 90 1024.9
20260505000026 14 0 0.0 0.0 0.00 0.20 0.08 90 1024.9
20260504235508 14 0 0.0 0.0 0.00 0.20 0.08 90 1024.9
20260504235009 14 0 0.0 0.0 0.00 0.20 0.08 90 1024.8
20260504234534 14 0 0.0 0.0 0.00 0.20 0.08 90 1025.0
20260504234008 14 0 0.0 0.0 0.00 0.20 0.08 90 1024.8
20260504233508 13 0 0.0 0.0 0.00 0.20 0.08 90 1024.9
20260504233028 13 0 0.0 0.0 0.00 0.20 0.08 90 1024.9
20260504232509 13 0 0.0 0.0 0.00 0.20 0.08 89 1025.0
20260504232008 13 0 0.0 0.0 0.00 0.20 0.08 90 1024.8
20260504231527 13 0 0.0 0.0 0.00 0.20 0.08 90 1024.8
20260504231008 13 0 0.0 0.0 0.00 0.20 0.08 89 1024.7
20260504230507 13 0 0.0 0.0 0.00 0.20 0.08 89 1024.7
20260504230029 13 0 0.0 0.0 0.00 0.20 0.08 89 1024.6
20260504225516 13 0 0.0 0.0 0.00 0.20 0.08 89 1024.5
20260504225008 13 0 0.0 0.0 0.00 0.20 0.08 89 1024.5
20260504224528 13 0 0.0 0.0 0.00 0.20 0.08 89 1024.5
20260504224008 13 0 0.0 0.0 0.00 0.20 0.08 89 1024.4
20260504223508 13 0 0.0 0.0 0.00 0.20 0.08 89 1024.3
20260504223030 13 0 0.0 0.0 0.00 0.20 0.08 89 1024.4
20260504222510 12 0 0.0 0.0 0.00 0.46 0.08 89 1024.1
20260504222010 12 0 0.0 0.0 0.00 0.46 0.08 89 1024.2
20260504221528 12 0 0.0 0.0 0.00 0.46 0.08 89 1024.1
20260504221011 12 0 0.0 0.0 0.00 0.46 0.08 89 1024.0
20260504220508 12 0 0.0 0.0 0.00 0.46 0.08 89 1023.9
20260504220030 12 0 0.0 0.0 0.00 0.46 0.08 89 1024.0
20260504215510 12 0 0.0 0.0 0.00 0.46 0.08 88 1023.8
20260504215008 12 0 0.0 0.0 0.00 0.46 0.08 88 1023.8
20260504214528 12 0 0.0 0.0 0.00 0.46 0.08 88 1023.8
20260504214007 12 0 0.0 0.0 0.00 0.46 0.08 88 1023.8
20260504213511 12 0 0.0 0.0 0.00 0.46 0.08 88 1023.8
20260504213026 12 0 0.0 0.0 0.00 0.46 0.08 88 1023.8
20260504212508 11 0 0.0 0.0 0.00 0.56 0.08 88 1023.7
20260504212009 11 0 0.0 0.0 0.00 0.56 0.08 88 1023.6
20260504211527 11 0 0.0 0.0 0.00 0.53 0.08 88 1023.6
20260504211011 11 0 0.0 0.0 0.00 0.53 0.08 88 1023.5
20260504210509 11 0 0.0 0.0 0.00 0.53 0.08 88 1023.4
20260504210032 11 0 0.0 0.0 0.00 0.53 0.08 88 1023.3
20260504205512 11 0 0.0 0.0 0.00 0.53 0.08 88 1023.2
20260504205011 11 0 0.0 0.0 0.00 0.53 0.08 88 1023.1
20260504204527 11 0 0.0 0.0 0.00 0.53 0.08 88 1023.2
20260504204007 11 0 0.0 0.0 0.00 0.53 0.08 87 1023.1
20260504203513 11 0 0.0 0.0 0.00 0.53 0.08 87 1023.1
20260504203039 11 0 0.0 0.0 0.00 0.53 0.08 87 1023.0
20260504202511 11 0 0.0 0.0 0.00 0.53 0.08 87 1023.0
20260504202008 11 0 0.0 0.0 0.00 0.53 0.08 87 1023.0
20260504201531 11 0 0.0 0.0 0.00 0.53 0.08 87 1022.9
20260504201018 11 0 0.0 0.0 0.00 0.53 0.08 87 1023.0
20260504200510 11 0 0.0 0.0 0.00 0.53 0.08 87 1022.9
20260504200026 11 0 0.0 0.0 0.00 0.53 0.08 87 1022.9
20260504195509 11 0 0.0 0.0 0.00 0.53 0.08 87 1022.9
20260504195013 11 0 0.0 0.0 0.00 0.53 0.08 87 1022.8
20260504194533 11 0 0.0 0.0 0.00 0.53 0.08 87 1022.8
20260504194010 11 0 0.0 0.0 0.00 0.53 0.08 87 1022.7
20260504193514 11 0 0.0 0.0 0.00 0.53 0.08 87 1022.7
20260504193030 11 0 0.0 0.0 0.00 0.53 0.08 87 1022.7
20260504192509 11 0 0.0 0.0 0.00 0.74 0.08 87 1022.7
20260504192010 11 0 0.0 0.0 0.00 0.71 0.05 87 1022.7
20260504191529 11 0 0.0 0.0 0.00 0.71 0.05 87 1022.5
20260504191012 12 0 0.0 0.0 0.00 0.71 0.05 87 1022.5
20260504190508 12 0 0.0 0.0 0.00 0.71 0.05 87 1022.4
20260504190030 12 0 0.0 0.0 0.00 0.71 0.05 87 1022.4
20260504185509 12 0 0.0 0.0 0.00 0.71 0.05 87 1022.4
20260504185009 12 0 0.0 0.0 0.00 0.71 0.05 87 1022.4
20260504184530 12 0 0.0 0.0 0.00 0.71 0.05 87 1022.4
20260504184009 12 0 0.0 0.0 0.00 0.71 0.05 87 1022.4
20260504183512 12 0 0.0 0.0 0.00 0.71 0.05 87 1022.4
20260504183031 12 0 0.0 0.0 0.00 0.71 0.05 87 1022.3
20260504182519 12 0 0.0 0.0 0.00 0.71 0.05 87 1022.3
20260504182017 12 0 0.0 0.0 0.00 0.71 0.05 87 1022.1
20260504181527 12 0 0.0 0.0 0.00 0.71 0.05 87 1022.1
20260504181009 12 0 0.0 0.0 0.00 0.71 0.05 87 1022.1
20260504180511 12 0 0.0 0.0 0.00 0.71 0.05 87 1022.1
20260504180031 12 0 0.0 0.0 0.00 0.71 0.05 87 1022.1
20260504175508 12 0 0.0 0.0 0.00 0.71 0.05 87 1022.1
20260504175009 12 0 0.0 0.0 0.00 0.71 0.05 87 1022.1
20260504174526 12 0 0.0 0.0 0.00 0.71 0.05 87 1022.1
20260504174008 12 0 0.0 0.0 0.00 0.71 0.05 87 1022.1
20260504173510 12 0 0.0 0.0 0.03 0.71 0.05 87 1022.1
20260504173026 12 0 0.0 0.0 0.03 0.71 0.05 87 1022.0
20260504172508 13 0 0.0 0.0 0.03 0.74 0.05 87 1022.1
20260504172010 12 0 0.0 0.0 0.03 0.74 0.05 87 1022.3
20260504171528 12 0 0.0 0.0 0.03 0.74 0.05 86 1022.3
20260504171014 12 0 0.0 0.0 0.03 0.74 0.05 87 1022.3
20260504170508 12 0 0.0 0.0 0.03 0.74 0.05 87 1022.4
20260504151017 12 0 0.0 0.0 0.00 0.84 0.00 84 1022.1
20260504150512 12 0 0.0 0.0 0.00 0.84 0.00 83 1022.1
20260504141008 12 0 0.0 0.0 0.00 0.84 0.84 82 1021.8
20260504140516 12 0 0.0 0.0 0.00 0.84 0.84 82 1021.7
20260504130510 13 0 0.0 0.0 0.00 0.84 0.84 81 1021.6
20260504110511 15 0 0.0 4.8 0.08 0.86 0.84 74 1020.9
20260504100512 16 0 0.0 0.0 0.00 0.84 0.74 72 1019.7